Location: Steilacoom
(47.1700°N, 122.5700°W)
Time: 02:35:42
(UTC-08:00)

STARS - Visible Passes

Search period start: 23 January 2020 00:00
Search period end: 02 February 2020 00:00
Orbit: 625 x 640 km, 98.3° (Epoch: 22 January)

Date Brightness Start Highest point End Pass type
(mag) Time Alt. Az. Time Alt. Az. Time Alt. Az.
23 Jan ? 06:52:28 10° SE 06:56:24 32° ENE 07:00:20 10° N visible
25 Jan ? 06:01:23 10° ENE 06:02:41 11° NE 06:03:58 10° NE visible
26 Jan ? 06:20:37 10° E 06:23:25 17° ENE 06:26:13 10° NNE visible
27 Jan ? 06:40:37 10° ESE 06:44:13 25° ENE 06:47:49 10° N visible
28 Jan ? 07:01:00 10° SE 07:05:04 38° ENE 07:09:09 10° N visible
30 Jan ? 06:09:17 10° E 06:11:17 13° ENE 06:13:18 10° NNE visible
31 Jan ? 06:28:55 10° ESE 06:32:03 19° ENE 06:35:11 10° NNE visible
01 Feb ? 06:49:05 10° SE 06:52:52 29° ENE 06:56:39 10° N visible
